EW1895 Weather Reports


Display with metric or nautical units.
time (UTC)temp
F
wind
direction
speed
MPH
gust
MPH
rain 1hr
in
rain 24hr
in
rain mn
in
humidity
%
barometer
mb
20260903100012 72 170 0.0 0.0 0.00 0.00 0.00 95 1016.5
20260903094511 73 170 0.0 0.0 0.00 0.00 0.00 95 1016.7
20260903093010 73 170 0.0 0.0 0.00 0.00 0.00 95 1016.7
20260903091513 73 170 0.0 0.0 0.00 0.00 0.00 95 1016.4
20260903090016 73 170 0.0 0.0 0.00 0.00 0.00 95 1016.4
20260903084522 73 170 0.0 0.0 0.00 0.00 0.00 95 1016.2
20260903083006 73 170 0.0 0.0 0.00 0.00 0.00 95 1016.1
20260903081506 73 170 0.0 0.0 0.00 0.00 0.00 95 1015.9
20260903080005 73 170 0.0 0.0 0.00 0.00 0.00 94 1016.1
20260903074502 73 170 0.0 0.0 0.00 0.00 0.00 95 1016.3
20260903073001 73 170 0.0 0.0 0.00 0.00 0.00 94 1016.5
20260903071504 73 170 0.0 0.0 0.00 0.00 0.00 94 1016.6
20260903070002 73 170 0.0 0.0 0.00 0.00 0.00 94 1016.6
20260903064502 73 170 0.0 0.0 0.00 0.00 0.00 94 1016.6
20260903063111 74 170 0.0 0.0 0.00 0.00 0.00 94 1016.7
20260903061558 74 170 0.0 0.0 0.00 0.00 0.00 94 1016.6
20260903060055 74 170 0.0 0.0 0.00 0.00 0.00 94 1016.7
20260903054554 74 170 0.0 0.0 0.00 0.00 0.00 94 1016.8
20260903053112 75 170 0.0 0.0 0.00 0.00 0.00 93 1016.9
20260903051552 75 170 0.0 0.0 0.00 0.00 0.00 93 1017.3
20260903044600 75 170 0.0 0.0 0.00 0.00 0.00 94 1017.5
20260903043107 75 170 0.0 0.0 0.00 0.00 0.00 94 1017.3
20260903041554 75 170 0.0 0.0 0.00 0.00 0.00 93 1017.1
20260903040053 76 170 0.0 0.0 0.00 0.00 0.00 93 1016.8
20260903034555 76 170 0.0 0.0 0.00 0.00 0.00 93 1016.8
20260903033050 76 170 0.0 0.0 0.00 0.00 0.00 92 1016.7
20260903031606 76 170 0.0 0.0 0.00 0.00 0.00 92 1016.6
20260903030049 76 170 0.0 0.0 0.00 0.00 0.00 92 1016.5
20260903024548 77 170 0.0 0.0 0.00 0.00 0.00 91 1016.9
20260903023047 77 170 0.0 0.0 0.00 0.00 0.00 91 1016.9
20260903021553 77 170 0.0 0.0 0.00 0.00 0.00 90 1016.8
20260903020047 78 170 0.0 0.0 0.00 0.00 0.00 90 1017.2
20260903014556 78 170 0.0 0.0 0.00 0.00 0.00 89 1017.6
20260903013048 79 170 0.0 0.0 0.00 0.00 0.00 88 1017.3
20260903011547 79 170 0.0 0.0 0.00 0.00 0.00 88 1017.2
20260903010046 80 170 0.0 0.0 0.00 0.00 0.00 86 1017.2
20260903004545 80 170 0.0 0.0 0.00 0.00 0.00 85 1017.0
20260903003045 81 170 0.0 0.0 0.00 0.00 0.00 84 1016.9
20260903001550 82 170 0.0 0.0 0.00 0.00 0.00 83 1016.7
20260903000044 83 170 0.0 0.0 0.00 0.00 0.00 82 1016.7
20260902234544 83 170 0.0 0.0 0.00 0.00 0.00 81 1016.9
20260902233044 84 177 0.0 0.0 0.00 0.00 0.00 79 1016.7
20260902231543 84 177 0.0 0.0 0.00 0.00 0.00 79 1017.0
20260902230043 84 176 0.0 4.0 0.00 0.00 0.00 78 1017.5
20260902224544 84 177 0.0 0.0 0.00 0.00 0.00 77 1017.3
20260902223043 85 180 0.0 0.0 0.00 0.00 0.00 77 1017.3
20260902221543 85 180 0.0 0.0 0.00 0.00 0.00 75 1017.2
20260902220046 86 177 0.0 1.0 0.00 0.00 0.00 75 1017.3
20260902214542 86 148 0.0 0.0 0.00 0.00 0.00 73 1016.9
20260902213041 88 110 0.0 1.0 0.00 0.00 0.00 70 1016.9
20260902211548 89 110 0.0 3.0 0.00 0.00 0.00 68 1016.9
20260902210108 90 108 0.0 3.0 0.00 0.00 0.00 65 1017.1
20260902204543 92 327 3.0 11.0 0.00 0.00 0.00 62 1016.6
20260902203040 96 5 0.0 3.0 0.00 0.00 0.00 53 1017.2
20260902201541 97 346 0.0 1.0 0.00 0.00 0.00 52 1017.0
20260902200040 98 74 0.0 6.0 0.00 0.00 0.00 51 1017.3
20260902194542 98 132 0.0 1.0 0.00 0.00 0.00 50 1017.1
20260902193040 98 146 0.0 2.0 0.00 0.00 0.00 52 1016.8
20260902191543 98 105 0.0 1.0 0.00 0.00 0.00 52 1016.9
20260902190041 98 275 0.0 3.0 0.00 0.00 0.00 50 1017.1
20260902184536 99 167 0.0 2.0 0.00 0.00 0.00 50 1017.1
20260902183033 98 103 0.0 2.0 0.00 0.00 0.00 51 1017.3
20260902181531 97 113 0.0 1.0 0.00 0.00 0.00 51 1017.4
20260902180030 97 175 0.0 5.0 0.00 0.00 0.00 51 1017.5
20260902174530 97 346 0.0 1.0 0.00 0.00 0.00 51 1017.7
20260902173029 97 157 0.0 4.0 0.00 0.00 0.00 51 1017.7
20260902171529 97 327 0.0 0.0 0.00 0.00 0.00 53 1017.6
20260902170025 97 336 0.0 0.0 0.00 0.00 0.00 52 1017.7
20260902164522 96 93 0.0 0.0 0.00 0.00 0.00 54 1017.7
20260902163025 96 299 0.0 0.0 0.00 0.00 0.00 51 1017.8
20260902161519 96 298 0.0 0.0 0.00 0.00 0.00 52 1017.8
20260902160017 95 298 0.0 0.0 0.00 0.00 0.00 52 1017.9
20260902154516 95 360 0.0 0.0 0.00 0.00 0.00 54 1018.0
20260902153012 93 319 0.0 0.0 0.00 0.00 0.00 59 1018.0
20260902151517 93 319 0.0 0.0 0.00 0.00 0.00 59 1018.1
20260902150010 92 253 0.0 0.0 0.00 0.00 0.00 59 1018.2
20260902144510 90 253 0.0 0.0 0.00 0.00 0.00 62 1018.1
20260902143103 90 340 0.0 0.0 0.00 0.00 0.00 65 1018.2
20260902141559 89 340 0.0 0.0 0.00 0.00 0.00 65 1018.2
20260902140057 87 340 0.0 0.0 0.00 0.00 0.00 68 1017.9
20260902134549 85 340 0.0 0.0 0.00 0.00 0.00 72 1017.9
20260902133045 82 340 0.0 0.0 0.00 0.00 0.00 81 1017.8
20260902131542 79 340 0.0 0.0 0.00 0.00 0.00 84 1017.7
20260902130039 77 340 0.0 0.0 0.00 0.00 0.00 88 1017.7
20260902124540 76 340 0.0 0.0 0.00 0.00 0.00 89 1017.6
20260902123035 75 340 0.0 0.0 0.00 0.00 0.00 91 1017.6
20260902121536 74 340 0.0 0.0 0.00 0.00 0.00 92 1017.7
20260902120034 73 340 0.0 0.0 0.00 0.00 0.00 92 1017.7
20260902114535 73 340 0.0 0.0 0.00 0.00 0.00 93 1017.7
20260902113033 73 340 0.0 0.0 0.00 0.00 0.00 92 1017.7
20260902111532 73 340 0.0 0.0 0.00 0.00 0.00 92 1017.7
20260902110031 74 340 0.0 0.0 0.00 0.00 0.00 92 1017.6
20260902104538 74 340 0.0 0.0 0.00 0.00 0.00 92 1017.4
20260902103028 74 340 0.0 0.0 0.00 0.00 0.00 92 1017.4
20260902101535 74 340 0.0 0.0 0.00 0.00 0.00 92 1017.3